Weather History for PAWS - January, 2014

Change the Weather History Date:

Wednesday, January 15, 2014

  Actual Average Record
Temperature  
Mean Temperature 30 °F -  
Max Temperature 35 °F 21 °F 47 °F (1981)
Min Temperature 26 °F 5 °F -26 °F (1973)
Degree Days  
Heating Degree Days 34    
Moisture  
Dew Point 23 °F    
Average Humidity 75    
Maximum Humidity 93    
Minimum Humidity 55    
Precipitation  
Precipitation 0.01 in - - ()
Sea Level Pressure  
Sea Level Pressure 29.62 in    
Wind  
Wind Speed 7 mph (NE)    
Max Wind Speed 16 mph    
Max Gust Speed 22 mph    
Visibility 8 miles    
Events      
Averages and records for this station are not official NWS values.
T = Trace of Precipitation, MM = Missing Value Source: NWS Daily Summary

Daily Weather History Graph

Daily Weather History Graph

Search for Another Location

Airport or City:

Trip Planner

Search our weather history database for the weather conditions in past years. The results will help you decide how hot, cold, wet, or windy it might be!

Date:

Astronomy

Jan. 15, 2014 Rise Set
Actual Time 9:58 AM AKST 4:17 PM AKST
Civil Twilight 9:01 AM AKST 5:14 PM AKST
Nautical Twilight 8:03 AM AKST 6:12 PM AKST
Astronomical Twilight 7:11 AM AKST 7:04 PM AKST
Moon 4:47 PM AKST (1/15) 9:00 AM AKST (1/15)
Length of Visible Light 8h 13m
Length of Day
6h 19m
Full, 100% of the Moon is Illuminated
Jan 15
Full
Jan 15
Full
Jan 23
Last Quarter
Jan 30
New
Feb 6
First Quarter

Hourly Weather History & Observations

Time (AKST) Temp. Windchill Dew Point Humidity Pressure Visibility Wind Dir Wind Speed Gust Speed Precip Events Conditions
12:16 AM 33.8 °F 25.3 °F 23.0 °F 65% 29.55 in 10.0 mi SSW 11.5 mph 21.9 mph N/A   Overcast
12:36 AM 35.6 °F 27.5 °F 23.0 °F 60% 29.57 in 10.0 mi South 11.5 mph 18.4 mph N/A   Overcast
12:56 AM 33.8 °F 30.8 °F 23.0 °F 65% 29.59 in 10.0 mi SSE 3.5 mph 17.3 mph N/A   Overcast
1:16 AM 32.0 °F 28.7 °F 24.8 °F 75% 29.60 in 10.0 mi SE 3.5 mph - N/A   Overcast
1:36 AM 30.2 °F 24.3 °F 24.8 °F 80% 29.61 in 10.0 mi ENE 5.8 mph - N/A   Overcast
1:56 AM 30.2 °F 24.3 °F 24.8 °F 80% 29.62 in 10.0 mi ESE 5.8 mph - N/A   Mostly Cloudy
2:16 AM 32.0 °F 26.4 °F 23.0 °F 69% 29.63 in 10.0 mi East 5.8 mph - N/A   Mostly Cloudy
2:36 AM 33.8 °F 29.6 °F 23.0 °F 65% 29.63 in 10.0 mi ESE 4.6 mph - N/A   Scattered Clouds
2:56 AM 32.0 °F 26.4 °F 23.0 °F 69% 29.65 in 10.0 mi ENE 5.8 mph - N/A   Mostly Cloudy
3:16 AM 30.2 °F 25.4 °F 21.2 °F 69% 29.65 in 10.0 mi NE 4.6 mph - N/A   Mostly Cloudy
3:36 AM 28.4 °F - 21.2 °F 74% 29.66 in 10.0 mi Calm Calm - N/A   Overcast
3:56 AM 30.2 °F - 21.2 °F 69% 29.67 in 10.0 mi Calm Calm - N/A   Scattered Clouds
4:16 AM 26.6 °F 22.6 °F 19.4 °F 74% 29.67 in 10.0 mi NNE 3.5 mph - N/A   Clear
4:36 AM 26.6 °F 22.6 °F 17.6 °F 69% 29.67 in 10.0 mi NE 3.5 mph - N/A   Clear
4:56 AM 28.4 °F 22.2 °F 21.2 °F 74% 29.67 in 10.0 mi NNE 5.8 mph - N/A   Clear
5:16 AM 26.6 °F 21.2 °F 17.6 °F 69% 29.67 in 10.0 mi NE 4.6 mph - N/A   Clear
5:36 AM 26.6 °F 22.6 °F 17.6 °F 69% 29.66 in 10.0 mi NE 3.5 mph - N/A   Clear
5:56 AM 26.6 °F - 17.6 °F 69% 29.66 in 10.0 mi Calm Calm - N/A   Clear
6:16 AM 28.4 °F - 17.6 °F 64% 29.66 in 10.0 mi Calm Calm - N/A   Clear
6:36 AM 28.4 °F 24.6 °F 17.6 °F 64% 29.66 in 10.0 mi East 3.5 mph - N/A   Mostly Cloudy
6:56 AM 30.2 °F 24.3 °F 17.6 °F 60% 29.65 in 10.0 mi ENE 5.8 mph - N/A   Overcast
7:16 AM 30.2 °F 24.3 °F 17.6 °F 60% 29.65 in 10.0 mi ENE 5.8 mph - N/A   Overcast
7:36 AM 32.0 °F 27.5 °F 17.6 °F 55% 29.66 in 10.0 mi East 4.6 mph - N/A   Overcast
7:56 AM 32.0 °F 26.4 °F 19.4 °F 60% 29.66 in 10.0 mi ENE 5.8 mph - N/A   Overcast
8:16 AM 32.0 °F 26.4 °F 19.4 °F 60% 29.67 in 10.0 mi ENE 5.8 mph - N/A   Overcast
8:36 AM 32.0 °F 26.4 °F 19.4 °F 60% 29.67 in 10.0 mi ENE 5.8 mph - N/A   Overcast
8:56 AM 32.0 °F 26.4 °F 19.4 °F 60% 29.67 in 10.0 mi ENE 5.8 mph - N/A   Overcast
9:16 AM 32.0 °F 26.4 °F 19.4 °F 60% 29.67 in 10.0 mi ENE 5.8 mph - N/A   Overcast
9:36 AM 33.8 °F 28.6 °F 19.4 °F 56% 29.67 in 10.0 mi East 5.8 mph - N/A   Overcast
9:56 AM 33.8 °F 27.0 °F 19.4 °F 56% 29.68 in 10.0 mi East 8.1 mph - N/A   Overcast
10:16 AM 32.0 °F 27.5 °F 24.8 °F 75% 29.68 in 7.0 mi East 4.6 mph - N/A   Overcast
10:36 AM 32.0 °F 28.7 °F 28.4 °F 87% 29.68 in 2.0 mi NNE 3.5 mph - N/A   Overcast
10:56 AM 32.0 °F 27.5 °F 28.4 °F 87% 29.68 in 3.0 mi North 4.6 mph - N/A   Overcast
11:16 AM 30.2 °F 24.3 °F 28.4 °F 93% 29.68 in 1.2 mi NE 5.8 mph - N/A   Overcast
11:36 AM 30.2 °F 21.9 °F 26.6 °F 86% 29.68 in 1.8 mi ENE 9.2 mph - N/A   Overcast
11:56 AM 30.2 °F 20.2 °F 26.6 °F 86% 29.67 in 2.0 mi ENE 12.7 mph 16.1 mph N/A   Overcast
12:16 PM - - - N/A% 29.65 in 3.0 mi ENE 12.7 mph 18.4 mph N/A   Overcast
12:36 PM - - - N/A% 29.65 in 9.0 mi ENE 11.5 mph 18.4 mph N/A   Overcast
12:56 PM - - - N/A% 29.63 in 10.0 mi ENE 16.1 mph 20.7 mph N/A   Overcast
1:16 PM 32.0 °F 23.0 °F 26.6 °F 80% 29.63 in 10.0 mi ENE 11.5 mph 17.3 mph N/A   Overcast
1:36 PM 33.8 °F 27.0 °F 26.6 °F 75% 29.63 in 10.0 mi ENE 8.1 mph - N/A   Overcast
1:56 PM 33.8 °F 26.4 °F 26.6 °F 75% 29.63 in 10.0 mi ENE 9.2 mph - N/A   Overcast
2:16 PM 33.8 °F 27.0 °F 24.8 °F 70% 29.62 in 10.0 mi ENE 8.1 mph - N/A   Overcast
2:36 PM 33.8 °F 27.0 °F 26.6 °F 75% 29.62 in 10.0 mi NE 8.1 mph - N/A   Overcast
2:56 PM 33.8 °F 26.4 °F 26.6 °F 75% 29.63 in 5.0 mi ENE 9.2 mph - N/A   Overcast
3:16 PM 33.8 °F 25.3 °F 26.6 °F 75% 29.62 in 4.0 mi ENE 11.5 mph 16.1 mph N/A   Overcast
3:36 PM 32.0 °F 22.5 °F 28.4 °F 87% 29.62 in 3.0 mi ENE 12.7 mph 18.4 mph N/A   Overcast
3:56 PM 32.0 °F 22.5 °F 28.4 °F 87% 29.62 in 3.0 mi ENE 12.7 mph 18.4 mph N/A   Overcast
4:16 PM - - - N/A% 29.60 in 3.0 mi ENE 12.7 mph 18.4 mph N/A   Mostly Cloudy
4:36 PM - - - N/A% 29.60 in 3.0 mi ENE 16.1 mph 21.9 mph N/A   Overcast
4:56 PM - - - N/A% 29.60 in 5.0 mi ENE 11.5 mph 18.4 mph N/A   Overcast
5:16 PM - - - N/A% 29.60 in 2.5 mi ENE 12.7 mph 18.4 mph N/A   Overcast
5:36 PM - - - N/A% 29.60 in 3.0 mi ENE 11.5 mph 17.3 mph N/A   Overcast
5:56 PM - - - N/A% 29.59 in 3.0 mi ENE 13.8 mph 19.6 mph N/A   Overcast
6:16 PM - - - N/A% 29.58 in 3.0 mi ENE 11.5 mph 19.6 mph N/A   Overcast
6:36 PM - - - N/A% 29.58 in 10.0 mi ENE 11.5 mph 16.1 mph 0.01 in   Overcast
6:56 PM - - - N/A% 29.57 in 10.0 mi NNE 9.2 mph - 0.01 in   Overcast
7:16 PM 32.0 °F 26.4 °F 26.6 °F 80% 29.59 in 10.0 mi NNW 5.8 mph - N/A   Overcast
7:36 PM 32.0 °F 27.5 °F 26.6 °F 80% 29.58 in 10.0 mi NW 4.6 mph - N/A   Overcast
7:56 PM 32.0 °F 26.4 °F 26.6 °F 80% 29.59 in 10.0 mi NW 5.8 mph - N/A   Overcast
8:16 PM 30.2 °F 23.4 °F 26.6 °F 86% 29.59 in 10.0 mi WNW 6.9 mph - N/A   Overcast
8:36 PM 28.4 °F 21.2 °F 26.6 °F 93% 29.59 in 10.0 mi West 6.9 mph - N/A   Overcast
8:56 PM 28.4 °F 21.2 °F 24.8 °F 86% 29.59 in 10.0 mi WNW 6.9 mph - N/A   Overcast
9:16 PM 28.4 °F 22.2 °F 24.8 °F 86% 29.59 in 10.0 mi West 5.8 mph - N/A   Mostly Cloudy
9:36 PM 28.4 °F - 24.8 °F 86% 29.58 in 10.0 mi Calm Calm - N/A   Partly Cloudy
9:56 PM 28.4 °F 24.6 °F 24.8 °F 86% 29.58 in 10.0 mi WNW 3.5 mph - N/A   Clear
10:16 PM 28.4 °F 23.3 °F 24.8 °F 86% 29.57 in 10.0 mi WNW 4.6 mph - N/A   Clear
10:36 PM 28.4 °F 23.3 °F 24.8 °F 86% 29.56 in 10.0 mi West 4.6 mph - N/A   Clear
10:56 PM 28.4 °F 22.2 °F 24.8 °F 86% 29.55 in 10.0 mi West 5.8 mph - N/A   Clear
11:16 PM 28.4 °F 21.2 °F 24.8 °F 86% 29.55 in 10.0 mi West 6.9 mph - N/A   Scattered Clouds
11:36 PM 28.4 °F 23.3 °F 24.8 °F 86% 29.55 in 10.0 mi WNW 4.6 mph - N/A   Overcast
11:56 PM 28.4 °F 24.6 °F 24.8 °F 86% 29.56 in 10.0 mi West 3.5 mph - N/A   Overcast